Content
SEND FEEDBACK

Daily
Averages
Monthly
Summary
United States of America

CRESTON, WEST VIRGINIA


Home > North America > United States > West Virginia
Elevation: 231 meters     Latitude: 38 57N     Longitude: 081 17W

WEATHER
 
SELECT A DAY
Number of Records: 206,453;   Date Range: 1/1/95 - 8/12/14
 
SHARE

PRINT THIS DATA

[ ← Previous Day ]
WEATHER ALMANAC - 31 JANUARY, 2013
[ Next Day → ]
[ °F ]   °C
Weather ElementAverageHighLow
Temperature-1.7 °C4 °C (12:19 am)-3.3 °C (10:53 pm)
Dewpoint-6.2 °C1 °C (12:19 am)-12.2 °C (3:53 pm)
Humidity73 %93 % (11:12 pm)45 % (3:53 pm)
Barometer1009.8 hPa1014.2 hPa (7:53 pm)997 hPa (12:19 am)
Wind Speed21.7 km/h38.9 km/h (1:32 am)
Wind Gust64.9 km/h (1:53 am)
Weather ElementAverage
Visibility9 km
Wind DirectionWSW (244.1 °)

Weather ElementTotal
Precipitation2.79 mm
Heating Degree Days18 (Base 18.3)
Averaged from 59 records on 31 January, 2013
WEATHER CONDITIONS BREAKOUT
WIND DIRECTION BREAKOUT
WEATHER BY HOUR - 31 JANUARY, 2013
[ °F ]   °C
Local TimeTemperatureDewpointHumidityBarometerVisibilityWind DirectionWind SpeedGust SpeedPrecipitationEventsConditions
12:19 AM4 °C1 °C81 %997 hPa16.1 kmWest (270°)25.9 km/h38.9 km/h0 mmOvercast
12:53 AM3.9 °C0.6 °C79 %998.3 hPa16.1 kmWest (260°)37 km/h48.1 km/h0 mmOvercast
1:14 AM3 °C1 °C87 %999 hPa9.7 kmWest (270°)29.6 km/h50.1 km/h0.25 mmRainLight Rain
1:32 AM2 °C-1 °C81 %999.7 hPa11.3 kmWest (270°)38.9 km/h57.5 km/h0.51 mmOvercast
1:53 AM1.7 °C-1.1 °C82 %1000.7 hPa16.1 kmWest (280°)35.2 km/h64.9 km/h0.51 mmOvercast
2:53 AM1.1 °C-3.9 °C70 %1002.4 hPa16.1 kmWest (280°)37 km/h53.8 km/hOvercast
3:07 AM1 °C-4 °C70 %1002.4 hPa16.1 kmWest (270°)33.3 km/h53.8 km/hOvercast
3:53 AM1.1 °C-5 °C64 %1003 hPa16.1 kmWSW (250°)27.8 km/h48.1 km/h0 mmOvercast
4:53 AM0.6 °C-5.6 °C64 %1004.1 hPa16.1 kmWest (260°)25.9 km/h42.6 km/hOvercast
5:53 AM0 °C-6.1 °C64 %1005.4 hPa14.5 kmWest (260°)20.4 km/h50.1 km/h0 mmOvercast
6:24 AM-1 °C-5 °C75 %1006.1 hPa9.7 kmWSW (250°)16.7 km/h0 mmSnowLight Snow
6:53 AM-0.6 °C-6.1 °C67 %1006.8 hPa16.1 kmWest (260°)20.4 km/h33.3 km/h0 mmSnowLight Snow
7:10 AM-1 °C-6 °C69 %1007.1 hPa16.1 kmWest (270°)31.5 km/h50.1 km/hOvercast
7:49 AM-2 °C-6 °C74 %1007.8 hPa3.2 kmWest (280°)29.6 km/h55.5 km/h0 mmSnowLight Snow
7:53 AM-1.7 °C-6.1 °C72 %1008.5 hPa3.2 kmWest (260°)22.2 km/h51.8 km/h0 mmSnowLight Snow
8:24 AM-2 °C-7 °C69 %1008.5 hPa4 kmWest (270°)18.5 km/h38.9 km/h0 mmSnowLight Snow
8:53 AM-2.2 °C-7.2 °C69 %1009.8 hPa16.1 kmWest (260°)25.9 km/h38.9 km/h0 mmSnowLight Snow
9:01 AM-2 °C-8 °C64 %1009.1 hPa14.5 kmWest (260°)25.9 km/h38.9 km/h0 mmOvercast
9:53 AM-2.2 °C-7.8 °C66 %1010.5 hPa8 kmWest (260°)22.2 km/h33.3 km/h0 mmSnowLight Snow
10:16 AM-2 °C-7 °C69 %1010.8 hPa1.6 kmWest (270°)24.1 km/h33.3 km/h0 mmSnowLight Snow
10:21 AM-3 °C-6 °C80 %1010.8 hPa1.3 kmWest (280°)27.8 km/h37 km/h0 mmSnowLight Snow
10:28 AM-3 °C-6 °C80 %1010.8 hPa0.3 kmWest (270°)22.2 km/h48.1 km/h0 mmFog-SnowSnow
10:37 AM-3 °C-6 °C80 %1010.8 hPa1.3 kmWest (260°)22.2 km/h48.1 km/h0 mmSnowLight Snow
10:45 AM-3 °C-6 °C80 %1011.2 hPa4 kmWest (260°)24.1 km/h40.7 km/h0 mmSnowLight Snow
10:53 AM-2.8 °C-6.7 °C75 %1011.9 hPa11.3 kmWest (260°)16.7 km/h40.7 km/h0 mmSnowLight Snow
11:03 AM-3 °C-7 °C74 %1011.2 hPa2.9 kmWSW (250°)31.5 km/h50.1 km/h0 mmSnowLight Snow
11:14 AM-3 °C-7 °C74 %1011.2 hPa3.2 kmWest (260°)24.1 km/h50.1 km/h0 mmSnowLight Snow
11:21 AM-2 °C-6 °C74 %1011.2 hPa14.5 kmWSW (240°)20.4 km/h37 km/h0 mmOvercast
11:53 AM-1.7 °C-7.2 °C67 %1011.9 hPa11.3 kmWSW (250°)20.4 km/h40.7 km/h0 mmOvercast
11:59 AM-2 °C-7 °C69 %1011.5 hPa3.2 kmWest (260°)33.3 km/h42.6 km/h0 mmSnowLight Snow
12:02 PM-2 °C-7 °C69 %1011.5 hPa1.3 kmWest (270°)25.9 km/h46.3 km/h0 mmSnowLight Snow
12:07 PM-3 °C-6 °C80 %1011.5 hPa0.3 kmWest (260°)29.6 km/h57.5 km/h0 mmFog-SnowSnow
12:16 PM-3 °C-6 °C80 %1011.5 hPa0.3 kmWest (270°)22.2 km/h50.1 km/h0.25 mmFog-SnowSnow
12:22 PM-3 °C-6 °C80 %1011.5 hPa1.9 kmWest (260°)25.9 km/h37 km/h0.25 mmSnowLight Snow
12:42 PM-3 °C-7 °C74 %1011.9 hPa4 kmWSW (250°)29.6 km/h40.7 km/h0.25 mmSnowLight Snow
12:49 PM-3 °C-8 °C69 %1011.9 hPa14.5 kmWest (260°)31.5 km/h55.5 km/h0.25 mmMostly Cloudy
12:53 PM-2.2 °C-8.3 °C63 %1012.9 hPa16.1 kmWest (270°)33.3 km/h55.5 km/h0.25 mmMostly Cloudy
1:53 PM-2.2 °C-11.7 °C49 %1013.2 hPa16.1 kmWest (270°)25.9 km/h42.6 km/hOvercast
2:53 PM-1.7 °C-11.7 °C47 %1013.5 hPa16.1 kmWest (270°)18.5 km/h42.6 km/hOvercast
3:53 PM-1.7 °C-12.2 °C45 %1013.9 hPa16.1 kmWest (270°)33.3 km/h46.3 km/hOvercast
4:53 PM-1.7 °C-11.1 °C49 %1013.9 hPa16.1 kmWSW (240°)20.4 km/h40.7 km/hMostly Cloudy
5:53 PM-2.2 °C-11.1 °C51 %1013.9 hPa16.1 kmWSW (250°)18.5 km/h29.6 km/hMostly Cloudy
6:53 PM-2.2 °C-8.9 °C61 %1013.9 hPa16.1 kmSSW (200°)11.1 km/hOvercast
7:53 PM-2.8 °C-8.3 °C66 %1014.2 hPa16.1 kmSSW (200°)9.3 km/hScattered Clouds
8:25 PM-2 °C-7 °C69 %1013.5 hPa2.9 kmWSW (240°)18.5 km/h27.8 km/h0 mmSnowLight Snow
8:34 PM-3 °C-6 °C80 %1013.5 hPa1.3 kmWSW (250°)9.3 km/h27.8 km/h0 mmSnowLight Snow
8:39 PM-3 °C-6 °C80 %1013.2 hPa4 kmSW (220°)9.3 km/h0 mmSnowLight Snow
8:46 PM-3 °C-7 °C74 %1013.2 hPa14.5 kmSW (220°)14.8 km/h0 mmOvercast
8:53 PM-2.8 °C-6.7 °C75 %1014.2 hPa16.1 kmSW (220°)9.3 km/h0 mmOvercast
9:53 PM-2.8 °C-6.1 °C78 %1014.2 hPa8 kmWSW (240°)13 km/h0 mmSnowLight Snow
10:00 PM-3 °C-6 °C80 %1013.2 hPa2.9 kmSW (230°)14.8 km/h27.8 km/h0 mmSnowLight Snow
10:07 PM-3 °C-5 °C86 %1012.9 hPa1.9 kmWSW (250°)11.1 km/h0 mmSnowLight Snow
10:22 PM-3 °C-5 °C86 %1012.9 hPa3.2 kmVariable7.4 km/h0 mmSnowLight Snow
10:27 PM-3 °C-5 °C86 %1012.9 hPa2.4 kmVariable7.4 km/h0 mmSnowLight Snow
10:53 PM-3.3 °C-5 °C88 %1013.2 hPa2.9 kmWSW (250°)11.1 km/h0.25 mmSnowLight Snow
11:04 PM-3 °C-5 °C86 %1012.2 hPa4 kmSW (220°)7.4 km/h0 mmSnowLight Snow
11:12 PM-3 °C-4 °C93 %1011.9 hPa6.4 kmSSW (200°)7.4 km/h0 mmSnowLight Snow
11:29 PM-3 °C-5 °C86 %1011.9 hPa8 kmSSW (210°)7.4 km/h0 mmOvercast
11:53 PM-3.3 °C-5 °C88 %1012.5 hPa9.7 kmSSW (210°)5.6 km/h0 mmOvercast
Hourly data recorded from KPKB, located 0 kilometers away from Creston, West Virginia







STORIES FROM OUR PARTNERS